Hourly Data Report for October 02, 2017

All times are specified in Local Standard Time (LST). Add 1 hour to adjust for Daylight Saving Time where and when it is observed.

EMERSON AUTO
MANITOBA

49°00'00.000" N
97°14'15.000" W
242.00 m
5020881
71560
WEX

Download Data

Hourly Data (October 2017)
Hourly Data Report for October 2, 2017
Temp Definition
°C
Dew Point Temp Definition
°C
Rel Hum Definition
%
Wind Dir Definition
10's deg

Wind Spd Definition
km/h
Visibility Definition
km
Stn Press Definition
kPa
Hmdx Definition


Wind Chill Definition


Weather Definition


TIME
00:00 14.6 13.4 92 15 14   97.34     LegendNANA
01:00 14.6 13.5 93 15 17   97.35     LegendNANA
02:00 15.0 13.4 90 16 18   97.33     LegendNANA
03:00 15.0 13.4 90 17 17   97.35     LegendNANA
04:00 14.9 13.6 92 18 19   97.31     LegendNANA
05:00 14.1 12.0 87 19 19   97.41     LegendNANA
06:00 13.2 11.1 87 21 19   97.48     LegendNANA
07:00 12.7 10.6 87 21 17   97.55     LegendNANA
08:00 12.6 10.3 86 20 14   97.62     LegendNANA
09:00 13.1 10.0 81 22 16   97.70     LegendNANA
10:00 13.7 9.3 75 22 22   97.74     LegendNANA
11:00 15.2 8.5 64 21 23   97.80     LegendNANA
12:00 14.1 7.3 64 21 28   97.90     LegendNANA
13:00 16.5 8.0 57 22 21   97.90     LegendNANA
14:00 15.7 7.6 58 21 22   97.93     LegendNANA
15:00 16.0 6.6 53 20 21   97.98     LegendNANA
16:00 16.7 6.5 51 21 21   98.03     LegendNANA
17:00 15.3 5.8 53 24 14   98.08     LegendNANA
18:00 13.5 6.8 64 20 9   98.18     LegendNANA
19:00 10.2 6.6 79 20 10   98.27     LegendNANA
20:00 9.8 6.1 78 18 10   98.33     LegendNANA
21:00 9.2 5.8 80 18 12   98.39     LegendNANA
22:00 8.4 5.4 82 18 9   98.36     LegendNANA
23:00 8.5 5.2 80 16 7   98.40     LegendNANA

Notes on Data Quality.

Legend

  • E = Estimated
  • M = Missing
  • NA = Not Available
  • ‡ = Partner data that is not subject to review by the National Climate Archives
Date modified: